AXI40 EGBB-ESSA

Flight info

Callsign AXI40
Flight time N/A
Altitude 39000
Route LUVU1Y LUVUM DCT TNT M868 ADELU L60 MAMUL L603 LAMIX UT29 LIBSO UL975 ERDOW DCT ROPAL DCT INBOB DCT DETSO N873 ARS T317 ELTOK DCT SA821 DCT SA860
Aircraft A343/H-SDE2E3FGHIJ4J5M1RWXY/LB1D1

Departure

Time 2026-05-08 08:50
Airport Birmingham Airport (EGBB)

Arrival

Time N/A
Airport Stockholm-Arlanda Airport (ESSA)
Time Latitude Longitude Altitude Speed Heading
2026-05-08 08:27 52.45430 -1.73864 329 ft 0 kts 326°
2026-05-08 08:38 52.45436 -1.73870 333 ft 4 kts 326°
2026-05-08 08:39 52.45431 -1.73863 332 ft 0 kts 326°
2026-05-08 08:41 52.45424 -1.73855 328 ft 4 kts 321°
2026-05-08 08:41 52.45406 -1.73824 330 ft 4 kts 295°
2026-05-08 08:42 52.45401 -1.73783 329 ft 4 kts 260°
2026-05-08 08:42 52.45410 -1.73743 329 ft 4 kts 237°
2026-05-08 08:42 52.45412 -1.73736 329 ft 0 kts 236°
2026-05-08 08:44 52.45396 -1.73775 329 ft 12 kts 236°
2026-05-08 08:44 52.45325 -1.73947 329 ft 21 kts 236°
2026-05-08 08:44 52.45329 -1.74097 329 ft 11 kts 296°
2026-05-08 08:45 52.45378 -1.74258 329 ft 18 kts 297°
2026-05-08 08:45 52.45417 -1.74381 328 ft 19 kts 297°
2026-05-08 08:45 52.45503 -1.74602 327 ft 13 kts 324°
2026-05-08 08:45 52.45585 -1.74698 324 ft 16 kts 324°
2026-05-08 08:46 52.45681 -1.74807 325 ft 18 kts 325°
2026-05-08 08:46 52.45791 -1.74927 323 ft 20 kts 327°
2026-05-08 08:46 52.45913 -1.75059 322 ft 22 kts 325°
2026-05-08 08:46 52.46044 -1.75206 322 ft 24 kts 326°
2026-05-08 08:47 52.46187 -1.75364 320 ft 26 kts 326°
2026-05-08 08:47 52.46287 -1.75474 320 ft 27 kts 326°
2026-05-08 08:47 52.46447 -1.75653 320 ft 28 kts 325°
2026-05-08 08:47 52.46585 -1.75808 318 ft 21 kts 326°
2026-05-08 08:48 52.46621 -1.75946 318 ft 12 kts 243°
2026-05-08 08:48 52.46575 -1.76052 319 ft 11 kts 232°
2026-05-08 08:48 52.46539 -1.76078 320 ft 4 kts 178°
2026-05-08 08:48 52.46518 -1.76063 319 ft 0 kts 146°
2026-05-08 08:49 52.46490 -1.76031 318 ft 24 kts 146°
2026-05-08 08:49 52.46150 -1.75653 321 ft 92 kts 146°
2026-05-08 08:50 52.45470 -1.74891 326 ft 143 kts 146°
2026-05-08 08:50 52.44568 -1.73889 703 ft 161 kts 146°
2026-05-08 08:50 52.43621 -1.72847 1406 ft 166 kts 145°
2026-05-08 08:50 52.42604 -1.71720 1949 ft 187 kts 146°
2026-05-08 08:51 52.41517 -1.70498 2821 ft 190 kts 144°
2026-05-08 08:51 52.40624 -1.68893 3649 ft 196 kts 119°
2026-05-08 08:51 52.40382 -1.66666 4435 ft 208 kts 87°
2026-05-08 08:51 52.40680 -1.64280 5311 ft 219 kts 75°
2026-05-08 08:52 52.41439 -1.62090 6326 ft 227 kts 49°
2026-05-08 08:52 52.42783 -1.60701 7285 ft 234 kts 21°
2026-05-08 08:52 52.44368 -1.59959 8225 ft 239 kts 14°
2026-05-08 08:52 52.46038 -1.59598 9128 ft 246 kts 360°
2026-05-08 08:53 52.47793 -1.59698 9647 ft 270 kts 355°
2026-05-08 08:53 52.49727 -1.59925 10239 ft 286 kts 354°
2026-05-08 08:53 52.51704 -1.60513 11011 ft 293 kts 339°
2026-05-08 08:53 52.53657 -1.61777 11471 ft 312 kts 334°
2026-05-08 08:54 52.55703 -1.63282 11839 ft 333 kts 334°
2026-05-08 08:54 52.57882 -1.64886 12251 ft 351 kts 334°
2026-05-08 08:54 52.60153 -1.66539 12895 ft 361 kts 334°
2026-05-08 08:54 52.62481 -1.68222 13642 ft 369 kts 334°
2026-05-08 08:55 52.64843 -1.69925 14314 ft 374 kts 334°
2026-05-08 08:55 52.67248 -1.71656 15046 ft 379 kts 334°
2026-05-08 08:55 52.69714 -1.73294 15785 ft 385 kts 340°
2026-05-08 08:55 52.72360 -1.74148 16532 ft 392 kts 355°
2026-05-08 08:56 52.75109 -1.74058 17344 ft 397 kts
2026-05-08 08:56 52.77873 -1.73587 18093 ft 402 kts
2026-05-08 08:56 52.80663 -1.72928 18767 ft 407 kts
2026-05-08 08:56 52.83468 -1.72201 19413 ft 411 kts
2026-05-08 08:57 52.86309 -1.71464 20063 ft 414 kts
2026-05-08 08:57 52.89173 -1.70746 20713 ft 418 kts
2026-05-08 08:57 52.92060 -1.70051 21351 ft 421 kts
2026-05-08 08:57 52.94974 -1.69371 21969 ft 425 kts
2026-05-08 08:58 52.97909 -1.68699 22575 ft 428 kts
2026-05-08 08:58 53.00876 -1.68026 23175 ft 432 kts
2026-05-08 08:58 53.03878 -1.67723 23722 ft 434 kts 356°
2026-05-08 08:58 53.06871 -1.68319 24201 ft 434 kts 345°
2026-05-08 08:59 53.09774 -1.69678 24740 ft 434 kts 340°
2026-05-08 08:59 53.12655 -1.71212 25266 ft 435 kts 342°
2026-05-08 08:59 53.15626 -1.72275 25775 ft 439 kts 350°
2026-05-08 08:59 53.18689 -1.72526 26266 ft 444 kts
2026-05-08 09:00 53.21767 -1.71893 26750 ft 448 kts
2026-05-08 09:00 53.24832 -1.70893 27213 ft 450 kts 10°
2026-05-08 09:00 53.27853 -1.69733 27600 ft 454 kts 11°
2026-05-08 09:00 53.30934 -1.68449 28027 ft 457 kts 13°
2026-05-08 09:01 53.33946 -1.66680 28452 ft 462 kts 21°
2026-05-08 09:01 53.36793 -1.64146 28886 ft 467 kts 31°
2026-05-08 09:01 53.39404 -1.60749 29290 ft 472 kts 42°
2026-05-08 09:01 53.41525 -1.56619 29684 ft 477 kts 54°
2026-05-08 09:02 53.43128 -1.51648 30094 ft 481 kts 67°
2026-05-08 09:02 53.44029 -1.46244 30554 ft 483 kts 79°
2026-05-08 09:02 53.44223 -1.40596 30807 ft 489 kts 92°
2026-05-08 09:02 53.43666 -1.35039 31043 ft 493 kts 106°
2026-05-08 09:03 53.42442 -1.29655 31335 ft 495 kts 112°
2026-05-08 09:03 53.41330 -1.24195 31676 ft 495 kts 108°
2026-05-08 09:03 53.40258 -1.18701 32048 ft 496 kts 108°
2026-05-08 09:03 53.39194 -1.13205 32387 ft 496 kts 107°
2026-05-08 09:04 53.38144 -1.07700 32735 ft 497 kts 107°
2026-05-08 09:04 53.37106 -1.02179 33079 ft 497 kts 107°
2026-05-08 09:04 53.36084 -0.96680 33595 ft 493 kts 107°
2026-05-08 09:04 53.35070 -0.91202 34069 ft 491 kts 107°
2026-05-08 09:05 53.34061 -0.85744 34341 ft 491 kts 107°
2026-05-08 09:05 53.33074 -0.80270 34620 ft 491 kts 104°
2026-05-08 09:05 53.32424 -0.74672 34930 ft 490 kts 96°
2026-05-08 09:05 53.32288 -0.68981 35229 ft 489 kts 86°
2026-05-08 09:06 53.32719 -0.63357 35507 ft 488 kts 76°
2026-05-08 09:06 53.33722 -0.57952 35774 ft 486 kts 66°
2026-05-08 09:06 53.35046 -0.52752 36037 ft 486 kts 64°
2026-05-08 09:06 53.36459 -0.47623 36277 ft 486 kts 63°
2026-05-08 09:07 53.37913 -0.42515 36530 ft 486 kts 63°
2026-05-08 09:07 53.39376 -0.37406 36781 ft 486 kts 63°
2026-05-08 09:07 53.40836 -0.32290 37032 ft 487 kts 63°
2026-05-08 09:07 53.42293 -0.27173 37288 ft 487 kts 63°
2026-05-08 09:08 53.43748 -0.22036 37532 ft 487 kts 64°
2026-05-08 09:08 53.45191 -0.16912 37806 ft 487 kts 64°
2026-05-08 09:08 53.46637 -0.11750 38065 ft 487 kts 64°
2026-05-08 09:08 53.48072 -0.06605 38308 ft 487 kts 64°
2026-05-08 09:09 53.49509 -0.01436 38557 ft 488 kts 64°
2026-05-08 09:09 53.50942 0.03715 38776 ft 488 kts 64°
2026-05-08 09:09 53.52581 0.08617 38960 ft 487 kts 55°
2026-05-08 09:09 53.54630 0.13143 39080 ft 488 kts 49°
2026-05-08 09:10 53.59107 0.21794 39113 ft 490 kts 47°
2026-05-08 09:10 53.63683 0.30256 39115 ft 488 kts 46°
2026-05-08 09:11 53.68258 0.38732 39113 ft 488 kts 47°
2026-05-08 09:11 53.72809 0.47247 39120 ft 489 kts 47°
2026-05-08 09:12 53.77349 0.55801 39118 ft 489 kts 47°
2026-05-08 09:12 53.81890 0.64391 39122 ft 490 kts 47°
2026-05-08 09:13 53.86430 0.73007 39142 ft 490 kts 47°
2026-05-08 09:13 53.90959 0.81647 39124 ft 490 kts 48°
2026-05-08 09:14 53.95055 0.90902 39133 ft 491 kts 53°
2026-05-08 09:14 53.99000 1.00359 39133 ft 491 kts 54°
2026-05-08 09:15 54.02915 1.09875 39142 ft 491 kts 54°
2026-05-08 09:15 54.06827 1.19410 39141 ft 491 kts 54°
2026-05-08 09:16 54.10713 1.28894 39140 ft 491 kts 54°
2026-05-08 09:16 54.14602 1.38415 39141 ft 491 kts 54°
2026-05-08 09:17 54.18498 1.47988 39139 ft 491 kts 54°
2026-05-08 09:17 54.22387 1.57583 39160 ft 491 kts 54°
2026-05-08 09:18 54.26271 1.67202 39150 ft 492 kts 55°
2026-05-08 09:18 54.30148 1.76842 39155 ft 492 kts 55°
2026-05-08 09:19 54.34021 1.86509 39155 ft 492 kts 55°
2026-05-08 09:19 54.37884 1.96189 39154 ft 492 kts 55°
2026-05-08 09:20 54.41741 2.05889 39155 ft 492 kts 55°
2026-05-08 09:20 54.45590 2.15608 39148 ft 492 kts 55°
2026-05-08 09:21 54.49432 2.25349 39157 ft 492 kts 56°
2026-05-08 09:23 54.62812 2.59572 39162 ft 493 kts 56°
2026-05-08 09:23 54.66649 2.69472 39161 ft 493 kts 56°
2026-05-08 09:24 54.70428 2.79262 39167 ft 493 kts 56°
2026-05-08 09:24 54.74224 2.89135 39170 ft 493 kts 56°
2026-05-08 09:25 54.78011 2.99025 39165 ft 493 kts 56°
2026-05-08 09:25 54.81795 3.08946 39168 ft 493 kts 56°
2026-05-08 09:26 54.85571 3.18888 39168 ft 493 kts 56°
2026-05-08 09:26 54.89337 3.28842 39167 ft 493 kts 56°
2026-05-08 09:27 54.93095 3.38816 39171 ft 493 kts 57°
2026-05-08 09:27 54.96841 3.48799 39181 ft 493 kts 57°
2026-05-08 09:28 55.00583 3.58810 39177 ft 493 kts 57°
2026-05-08 09:28 55.04313 3.68828 39172 ft 493 kts 57°
2026-05-08 09:29 55.08035 3.78866 39182 ft 493 kts 57°
2026-05-08 09:29 55.11750 3.88926 39174 ft 493 kts 57°
2026-05-08 09:30 55.15720 3.98675 39177 ft 492 kts 52°
2026-05-08 09:30 55.19937 4.08108 39186 ft 493 kts 51°
2026-05-08 09:31 55.24190 4.17516 39179 ft 493 kts 51°
2026-05-08 09:31 55.28410 4.26883 39186 ft 493 kts 51°
2026-05-08 09:32 55.32644 4.36336 39181 ft 492 kts 52°
2026-05-08 09:32 55.36868 4.45812 39184 ft 493 kts 52°
2026-05-08 09:33 55.41083 4.55306 39189 ft 492 kts 52°
2026-05-08 09:33 55.45290 4.64821 39191 ft 492 kts 52°
2026-05-08 09:34 55.49493 4.74361 39191 ft 493 kts 52°
2026-05-08 09:34 55.53688 4.83920 39192 ft 493 kts 52°
2026-05-08 09:35 55.57199 4.91950 39194 ft 493 kts 52°
2026-05-08 09:35 55.61382 5.01555 39201 ft 493 kts 52°
2026-05-08 09:36 55.65333 5.11456 39200 ft 493 kts 56°
2026-05-08 09:36 55.69137 5.21556 39205 ft 493 kts 56°
2026-05-08 09:37 55.72958 5.31646 39203 ft 493 kts 56°
2026-05-08 09:37 55.76809 5.41723 39203 ft 493 kts 56°
2026-05-08 09:38 55.80664 5.51804 39204 ft 493 kts 56°
2026-05-08 09:38 55.84513 5.61911 39209 ft 493 kts 56°
2026-05-08 09:39 55.88347 5.72027 39204 ft 493 kts 56°
2026-05-08 09:39 55.92172 5.82164 39206 ft 492 kts 56°
2026-05-08 09:40 55.95960 5.92245 39213 ft 492 kts 56°
2026-05-08 09:40 55.99764 6.02411 39214 ft 492 kts 57°
2026-05-08 09:41 56.03562 6.12601 39216 ft 492 kts 57°
2026-05-08 09:41 56.07351 6.22813 39216 ft 492 kts 57°
2026-05-08 09:42 56.11130 6.33040 39227 ft 492 kts 57°
2026-05-08 09:42 56.14893 6.43266 39220 ft 491 kts 57°
2026-05-08 09:43 56.18648 6.53513 39219 ft 492 kts 57°
2026-05-08 09:43 56.22401 6.63798 39222 ft 492 kts 57°
2026-05-08 09:44 56.26141 6.74090 39226 ft 492 kts 57°
2026-05-08 09:44 56.29875 6.84407 39224 ft 492 kts 57°
2026-05-08 09:45 56.33600 6.94745 39219 ft 492 kts 57°
2026-05-08 09:45 56.37308 7.05079 39235 ft 491 kts 57°
2026-05-08 09:46 56.41006 7.15430 39244 ft 490 kts 58°
2026-05-08 09:46 56.44692 7.25792 39229 ft 490 kts 58°
2026-05-08 09:47 56.48369 7.36174 39228 ft 490 kts 58°
2026-05-08 09:47 56.52011 7.46502 39235 ft 490 kts 58°
2026-05-08 09:48 56.55670 7.56921 39239 ft 490 kts 58°
2026-05-08 09:48 56.59319 7.67356 39241 ft 489 kts 58°
2026-05-08 09:49 56.62954 7.77799 39238 ft 489 kts 58°
2026-05-08 09:49 56.66580 7.88259 39238 ft 489 kts 58°
2026-05-08 09:50 56.70200 7.98747 39240 ft 489 kts 58°
2026-05-08 09:50 56.73808 8.09246 39240 ft 489 kts 58°
2026-05-08 09:51 56.77407 8.19767 39229 ft 489 kts 59°
2026-05-08 09:51 56.80998 8.30308 39242 ft 489 kts 59°
2026-05-08 09:52 56.84576 8.40857 39247 ft 489 kts 59°
2026-05-08 09:52 56.88147 8.51434 39242 ft 489 kts 59°
2026-05-08 09:53 56.91709 8.62029 39241 ft 489 kts 59°
2026-05-08 09:53 56.95254 8.72623 39241 ft 489 kts 59°
2026-05-08 09:54 56.98801 8.83267 39238 ft 489 kts 59°
2026-05-08 09:54 57.02335 8.93921 39237 ft 488 kts 59°
2026-05-08 09:55 57.05856 9.04582 39252 ft 488 kts 59°
2026-05-08 09:55 57.09364 9.15253 39245 ft 488 kts 59°
2026-05-08 09:56 57.12864 9.25945 39242 ft 488 kts 60°
2026-05-08 09:56 57.16356 9.36664 39245 ft 488 kts 60°
2026-05-08 09:57 57.21553 9.52705 39255 ft 488 kts 60°
2026-05-08 09:57 57.25042 9.63536 39254 ft 487 kts 60°
2026-05-08 09:58 57.28470 9.74223 39262 ft 487 kts 60°
2026-05-08 09:58 57.31910 9.85001 39259 ft 487 kts 60°
2026-05-08 09:59 57.35345 9.95809 39256 ft 487 kts 60°
2026-05-08 09:59 57.38770 10.06636 39252 ft 487 kts 60°
2026-05-08 10:00 57.42186 10.17480 39263 ft 487 kts 60°
2026-05-08 10:00 57.45596 10.28358 39258 ft 487 kts 61°
2026-05-08 10:01 57.48987 10.39225 39265 ft 486 kts 61°
2026-05-08 10:01 57.52367 10.50107 39269 ft 486 kts 61°
2026-05-08 10:02 57.55740 10.61017 39268 ft 486 kts 61°
2026-05-08 10:02 57.59103 10.71947 39270 ft 486 kts 61°
2026-05-08 10:03 57.62457 10.82896 39270 ft 486 kts 61°
2026-05-08 10:03 57.65799 10.93861 39266 ft 486 kts 61°
2026-05-08 10:04 57.69128 11.04830 39276 ft 485 kts 62°
2026-05-08 10:04 57.72444 11.15810 39277 ft 484 kts 62°
2026-05-08 10:05 57.75747 11.26799 39274 ft 485 kts 62°
2026-05-08 10:05 57.79044 11.37819 39272 ft 485 kts 62°
2026-05-08 10:06 57.82334 11.48866 39269 ft 485 kts 62°
2026-05-08 10:06 57.85613 11.59930 39267 ft 485 kts 62°
2026-05-08 10:07 57.88877 11.70997 39267 ft 485 kts 62°
2026-05-08 10:07 57.92137 11.82102 39265 ft 485 kts 62°
2026-05-08 10:08 57.95385 11.93219 39265 ft 485 kts 62°
2026-05-08 10:08 57.98606 12.04295 39266 ft 485 kts 62°
2026-05-08 10:09 58.01836 12.15461 39263 ft 485 kts 62°
2026-05-08 10:09 58.05057 12.26645 39263 ft 485 kts 63°
2026-05-08 10:10 58.08270 12.37857 39258 ft 485 kts 63°
2026-05-08 10:10 58.11464 12.49059 39266 ft 483 kts 63°
2026-05-08 10:11 58.14646 12.60270 39266 ft 483 kts 63°
2026-05-08 10:11 58.17812 12.71482 39266 ft 483 kts 63°
2026-05-08 10:12 58.20973 12.82731 39265 ft 483 kts 63°
2026-05-08 10:12 58.24122 12.93992 39265 ft 483 kts 63°
2026-05-08 10:13 58.27261 13.05271 39265 ft 483 kts 63°
2026-05-08 10:13 58.30390 13.16574 39266 ft 483 kts 63°
2026-05-08 10:14 58.33501 13.27865 39265 ft 482 kts 63°
2026-05-08 10:14 58.36603 13.39182 39263 ft 483 kts 63°
2026-05-08 10:15 58.39705 13.50549 39266 ft 483 kts 63°